Regional Weather Roundup
Issued by NWS

Home | Current Version | Previous Version | Graphics & Text | Print | Product List | Glossary On
Versions: 1 2 3 4 5 6 7 8 9 10 11 12 13 14 15 16 17 18 19 20 21 22 23 24 25 26 27 28 29 30 31 32 33 34 35 36 37 38 39 40 41 42 43 44 45 46 47 48 49 50
000
ASUS45 KBOI 210510
RWRID
WEATHER ROUNDUP FOR IDAHO
NATIONAL WEATHER SERVICE BOISE ID
1100 PM MDT SAT SEP 20 2014

NOTE: "FAIR" INDICATES FEW OR NO CLOUDS BELOW 12000 FEET
WITH NO SIGNIFICANT WEATHER AND/OR OBSTRUCTIONS TO VISIBILITY

IDZ012-014-210600-
SOUTHWEST IDAHO


CITY           SKY/WX    TMP DP  RH WIND       PRES   REMARKS
BOISE          CLEAR     68  47  46 SE7       30.01S
CALDWELL       CLEAR     63  45  51 CALM      30.02S
MOUNTAIN HOME  CLEAR     66  42  41 CALM      30.02S
$$

IDZ016-017-210600-
SOUTHCENTRAL IDAHO


CITY           SKY/WX    TMP DP  RH WIND       PRES   REMARKS
BURLEY         CLEAR     55  45  68 CALM      30.09S
JEROME         CLEAR     59  46  62 CALM      30.09S
TWIN FALLS     CLEAR     60  40  47 SE8       30.08F
$$

IDZ019>023-210600-
SOUTHEAST IDAHO


CITY           SKY/WX    TMP DP  RH WIND       PRES   REMARKS
IDAHO FALLS    CLEAR     56  46  69 N6        30.17S
POCATELLO      CLEAR     60  47  61 NE3       30.13S
REXBURG        CLEAR     57  42  57 NE5       30.18R
$$

IDZ006-010-011-018-031-032-210600-
CENTRAL IDAHO MOUNTAINS


CITY           SKY/WX    TMP DP  RH WIND       PRES   REMARKS
MCCALL         CLEAR     57  43  59 CALM      30.15R
HAILEY         CLEAR     59  43  55 NW8       30.22S
STANLEY          N/A     51  36  56 CALM      30.28R
SALMON         CLEAR     54  43  66 CALM      30.13R
CHALLIS        CLEAR     61  39  44 SE6       30.18R
$$

IDZ002-004-006-007-026-210600-
NORTHERN IDAHO


CITY           SKY/WX    TMP DP  RH WIND       PRES   REMARKS
LEWISTON       CLEAR     71  40  32 S7        29.97S
LOWELL           N/A     60  54  80 VRB5      30.04R
COEUR D`ALENE  CLEAR     64  45  48 NE12      30.06S
MULLAN PASS    CLEAR     59  36  42 SE9       30.27S
$$


USA.gov is the U.S. government's official web portal to all federal, state and local government web resources and services.